• In Uzbekistan
  • List of Countries
  • For 7 days
  • Water Temperature
  • Weather Map
  • Weather Widgets
  • user-avatar
    Login

    Hourly Weather Larne

    Today, 5 June, Friday

    Time Temperature Precipitation Wind Pressure Humidity
    00:00 +5°C° 0 mm 8 mps 747 mmHg 84%
    01:00 +5°C° 0 mm 8 mps 747 mmHg 85%
    02:00 +4°C° 0 mm 8 mps 746 mmHg 86%
    03:00 +4°C° 0 mm 8 mps 746 mmHg 88%
    04:00 +4°C° 0 mm 8 mps 746 mmHg 87%
    05:00 +5°C° 0 mm 8 mps 746 mmHg 86%
    06:00 +6°C° 0 mm 8 mps 746 mmHg 85%
    07:00 +6°C° 0.1 mm 8 mps 746 mmHg 80%
    08:00 +7°C° 0.1 mm 9 mps 746 mmHg 75%
    09:00 +8°C° 0.1 mm 9 mps 746 mmHg 70%
    10:00 +8°C° 0.1 mm 10 mps 746 mmHg 68%
    11:00 +9°C° 0.1 mm 11 mps 746 mmHg 66%
    12:00 +9°C° 0.1 mm 11 mps 745 mmHg 63%
    13:00 +9°C° 0.1 mm 12 mps 745 mmHg 63%
    14:00 +9°C° 0.1 mm 12 mps 746 mmHg 63%
    15:00 +9°C° 0.1 mm 13 mps 746 mmHg 63%
    16:00 +8°C° 0.1 mm 13 mps 745 mmHg 65%
    17:00 +7°C° 0.1 mm 13 mps 745 mmHg 67%
    18:00 +7°C° 0.1 mm 13 mps 745 mmHg 69%
    19:00 +5°C° 0.1 mm 13 mps 745 mmHg 71%
    20:00 +5°C° 0.1 mm 13 mps 745 mmHg 74%
    21:00 +4°C° 0.1 mm 13 mps 745 mmHg 76%
    22:00 +4°C° 0.5 mm 13 mps 744 mmHg 82%
    23:00 +4°C° 0.5 mm 13 mps 743 mmHg 87%

    Tomorrow, 6 June, Saturday

    Time Temperature Precipitation Wind Pressure Humidity
    00:00 +5°C° 0.5 mm 13 mps 742 mmHg 93%
    01:00 +5°C° 0.6 mm 13 mps 742 mmHg 94%
    02:00 +7°C° 0.6 mm 12 mps 742 mmHg 94%
    03:00 +8°C° 0.6 mm 11 mps 742 mmHg 95%
    04:00 +8°C° 0.3 mm 11 mps 742 mmHg 95%
    05:00 +8°C° 0.3 mm 11 mps 742 mmHg 94%
    06:00 +8°C° 0.3 mm 11 mps 743 mmHg 93%
    07:00 +8°C° 0.1 mm 11 mps 743 mmHg 92%
    08:00 +8°C° 0.1 mm 10 mps 744 mmHg 91%
    09:00 +9°C° 0.1 mm 10 mps 745 mmHg 89%
    10:00 +9°C° 0 mm 10 mps 745 mmHg 86%
    11:00 +11°C° 0 mm 10 mps 745 mmHg 83%
    12:00 +11°C° 0 mm 10 mps 746 mmHg 80%
    13:00 +12°C° 0 mm 10 mps 746 mmHg 80%
    14:00 +12°C° 0 mm 9 mps 746 mmHg 80%
    15:00 +12°C° 0 mm 9 mps 747 mmHg 80%
    16:00 +12°C° 0 mm 9 mps 747 mmHg 81%
    17:00 +11°C° 0 mm 9 mps 747 mmHg 81%
    18:00 +11°C° 0 mm 9 mps 747 mmHg 82%
    19:00 +11°C° 0 mm 9 mps 748 mmHg 83%
    20:00 +10°C° 0 mm 9 mps 748 mmHg 84%
    21:00 +10°C° 0 mm 9 mps 749 mmHg 84%
    22:00 +10°C° 0 mm 9 mps 749 mmHg 85%
    23:00 +10°C° 0 mm 9 mps 749 mmHg 85%

    Day after tomorrow, 7 June, Sunday

    Time Temperature Precipitation Wind Pressure Humidity
    00:00 +8°C° 0 mm 9 mps 749 mmHg 85%
    01:00 +8°C° 0 mm 9 mps 750 mmHg 85%
    02:00 +8°C° 0 mm 9 mps 750 mmHg 85%
    03:00 +8°C° 0 mm 9 mps 751 mmHg 84%
    04:00 +8°C° 0 mm 9 mps 751 mmHg 84%
    05:00 +8°C° 0 mm 9 mps 752 mmHg 83%
    06:00 +8°C° 0 mm 9 mps 752 mmHg 83%
    07:00 +10°C° 0 mm 9 mps 753 mmHg 80%
    08:00 +11°C° 0 mm 8 mps 753 mmHg 77%
    09:00 +11°C° 0 mm 7 mps 754 mmHg 74%
    10:00 +12°C° 0 mm 7 mps 754 mmHg 73%
    11:00 +14°C° 0 mm 7 mps 755 mmHg 71%
    12:00 +15°C° 0 mm 6 mps 755 mmHg 69%
    13:00 +15°C° 0 mm 7 mps 756 mmHg 69%
    14:00 +15°C° 0 mm 7 mps 756 mmHg 70%
    15:00 +15°C° 0 mm 7 mps 756 mmHg 70%
    16:00 +14°C° 0 mm 7 mps 756 mmHg 72%
    17:00 +12°C° 0 mm 8 mps 757 mmHg 74%
    18:00 +11°C° 0 mm 8 mps 757 mmHg 75%
    19:00 +10°C° 0 mm 8 mps 757 mmHg 78%
    20:00 +9°C° 0 mm 7 mps 758 mmHg 80%
    21:00 +6°C° 0 mm 7 mps 758 mmHg 83%
    22:00 +7°C° 0 mm 6 mps 759 mmHg 85%
    23:00 +6°C° 0 mm 5 mps 759 mmHg 87%

    8 June, Monday

    Time Temperature Precipitation Wind Pressure Humidity
    00:00 +5°C° 0 mm 5 mps 759 mmHg 89%
    01:00 +5°C° 0 mm 4 mps 759 mmHg 90%
    02:00 +5°C° 0 mm 3 mps 759 mmHg 92%
    03:00 +6°C° 0 mm 2 mps 759 mmHg 93%
    04:00 +7°C° 0 mm 2 mps 760 mmHg 90%
    05:00 +7°C° 0 mm 2 mps 760 mmHg 88%
    06:00 +8°C° 0 mm 3 mps 760 mmHg 85%
    07:00 +9°C° 0 mm 3 mps 761 mmHg 83%
    08:00 +9°C° 0 mm 3 mps 761 mmHg 81%
    09:00 +10°C° 0 mm 3 mps 761 mmHg 79%
    10:00 +10°C° 0 mm 3 mps 761 mmHg 78%
    11:00 +12°C° 0 mm 2 mps 762 mmHg 77%
    12:00 +12°C° 0 mm 2 mps 762 mmHg 76%
    13:00 +12°C° 0 mm 2 mps 762 mmHg 74%
    14:00 +13°C° 0 mm 2 mps 762 mmHg 73%
    15:00 +13°C° 0 mm 2 mps 762 mmHg 71%
    16:00 +13°C° 0 mm 2 mps 762 mmHg 72%
    17:00 +13°C° 0 mm 2 mps 762 mmHg 73%
    18:00 +12°C° 0 mm 2 mps 762 mmHg 74%
    19:00 +10°C° 0 mm 2 mps 762 mmHg 79%
    20:00 +8°C° 0 mm 2 mps 762 mmHg 84%
    21:00 +7°C° 0 mm 3 mps 763 mmHg 89%
    22:00 +6°C° 0 mm 2 mps 763 mmHg 89%
    23:00 +5°C° 0 mm 2 mps 763 mmHg 90%

    9 June, Tuesday

    Time Temperature Precipitation Wind Pressure Humidity
    00:00 +5°C° 0 mm 2 mps 763 mmHg 90%
    01:00 +5°C° 0 mm 2 mps 763 mmHg 90%
    02:00 +5°C° 0 mm 2 mps 763 mmHg 89%
    03:00 +5°C° 0 mm 2 mps 763 mmHg 89%
    04:00 +7°C° 0 mm 1 mps 763 mmHg 86%
    05:00 +8°C° 0 mm 1 mps 763 mmHg 83%
    06:00 +9°C° 0 mm 1 mps 763 mmHg 80%
    07:00 +10°C° 0 mm 1 mps 763 mmHg 77%
    08:00 +11°C° 0 mm 1 mps 763 mmHg 73%
    09:00 +12°C° 0 mm 1 mps 763 mmHg 70%
    10:00 +13°C° 0 mm 1 mps 763 mmHg 70%
    11:00 +13°C° 0 mm 1 mps 763 mmHg 70%
    12:00 +14°C° 0 mm 2 mps 764 mmHg 69%
    13:00 +14°C° 0 mm 2 mps 763 mmHg 70%
    14:00 +14°C° 0 mm 2 mps 763 mmHg 71%
    15:00 +14°C° 0 mm 2 mps 763 mmHg 72%
    16:00 +14°C° 0 mm 2 mps 763 mmHg 73%
    17:00 +13°C° 0 mm 3 mps 763 mmHg 74%
    18:00 +13°C° 0 mm 3 mps 763 mmHg 74%
    19:00 +12°C° 0 mm 3 mps 764 mmHg 79%
    20:00 +11°C° 0 mm 3 mps 764 mmHg 84%
    21:00 +9°C° 0 mm 3 mps 764 mmHg 89%
    22:00 +9°C° 0 mm 3 mps 764 mmHg 89%
    23:00 +8°C° 0 mm 2 mps 764 mmHg 89%

    10 June, Wednesday

    Time Temperature Precipitation Wind Pressure Humidity
    00:00 +7°C° 0 mm 2 mps 764 mmHg 89%
    01:00 +7°C° 0 mm 2 mps 764 mmHg 89%
    02:00 +7°C° 0 mm 3 mps 764 mmHg 89%
    03:00 +7°C° 0 mm 3 mps 764 mmHg 89%
    04:00 +8°C° 0 mm 3 mps 764 mmHg 87%
    05:00 +9°C° 0 mm 3 mps 764 mmHg 85%
    06:00 +10°C° 0 mm 3 mps 764 mmHg 83%
    07:00 +11°C° 0 mm 3 mps 764 mmHg 80%
    08:00 +13°C° 0 mm 3 mps 764 mmHg 76%
    09:00 +14°C° 0 mm 3 mps 765 mmHg 73%
    10:00 +15°C° 0 mm 4 mps 765 mmHg 70%
    11:00 +15°C° 0 mm 4 mps 765 mmHg 68%
    12:00 +17°C° 0 mm 4 mps 765 mmHg 65%
    13:00 +15°C° 0.1 mm 4 mps 765 mmHg 71%
    14:00 +14°C° 0.1 mm 4 mps 765 mmHg 78%
    15:00 +13°C° 0.1 mm 4 mps 765 mmHg 84%
    16:00 +13°C° 0.3 mm 4 mps 765 mmHg 88%
    17:00 +12°C° 0.3 mm 3 mps 765 mmHg 93%
    18:00 +11°C° 0.3 mm 3 mps 765 mmHg 97%
    19:00 +12°C° 0.1 mm 2 mps 765 mmHg 97%
    20:00 +12°C° 0.1 mm 2 mps 765 mmHg 98%
    21:00 +12°C° 0.1 mm 2 mps 765 mmHg 98%
    22:00 +12°C° 0.3 mm 2 mps 765 mmHg 98%
    23:00 +12°C° 0.3 mm 2 mps 764 mmHg 98%
    Show more